Hourly Data Report for February 21, 2018

MIRAMICHI RCS
NEW BRUNSWICK

47°00'34.000" N
65°27'54.000" W
33.00 m
8100989
71744
ACQ

Download Data

Hourly Data (February 2018)
Hourly Data Report for February 21, 2018
TIME
LST
Temp Definition
°C
Dew Point Definition
°C
Rel Hum Definition
%
Precip. Amount Definition
mm

Wind Dir Definition
10's deg

Wind Spd Definition
km/h
Visibility Definition
km
Stn Press Definition
kPa
Hmdx Definition


Wind Chill Definition


Weather Definition


00:00 -4.6 -5.7 92 0.0 8 18   102.51   -11 LegendNANA
01:00 -4.6 -5.6 93 0.0 7 15   102.47   -10 LegendNANA
02:00 -4.7 -5.6 93 0.0 7 16   102.39   -10 LegendNANA
03:00 -4.7 -5.5 94 0.0 7 11   102.25   -9 LegendNANA
04:00 -4.3 -5.1 94 0.0 8 10   102.10   -8 LegendNANA
05:00 -3.9 -4.6 95 0.2 8 7   101.97   -7 LegendNANA
06:00 -3.9 -4.6 95 0.0 6 3   101.90   -5 LegendNANA
07:00 -3.9 -4.4 96 0.0   0   101.70     LegendNANA
08:00 -3.6 -4.2 96 0.2   0   101.59     LegendNANA
09:00 -3.0 -3.7 95 0.2   0   101.40     LegendNANA
10:00 -2.6 -3.4 95 0.0   0   101.26     LegendNANA
11:00 -1.9 -2.4 96 0.0   0   101.13     LegendNANA
12:00 -0.3 -0.7 97 1.2   0   100.97     LegendNANA
13:00 0.9 0.5 97 0.2 23 24   100.81     LegendNANA
14:00 3.6 2.6 93 0.0 24 23   100.66     LegendNANA
15:00 5.8 4.2 90 0.0 24 18   100.53     LegendNANA
16:00 7.5 6.1 91 0.0 24 17   100.49     LegendNANA
17:00 6.6 5.6 94 0.0 23 21   100.51     LegendNANA
18:00 7.2 6.2 93 0.0 24 21   100.58     LegendNANA
19:00 7.4 6.7 95 0.0 24 19   100.68     LegendNANA
20:00 7.3 6.4 94 0.0 29 7   100.85     LegendNANA
21:00 6.8 3.2 78 0.0 28 21   101.11     LegendNANA
22:00 4.8 -4.3 52 0.0 29 32   101.39     LegendNANA
23:00 2.5 -4.9 58 0.0 29 21   101.59     LegendNANA

Notes on Data Quality.

Legend

  • E = Estimated
  • M = Missing
  • NA = Not Available*
  • [empty] = Indicates an unobserved value
Date modified: